Regional Weather Roundup
Issued by NWS

Home | Current Version | Previous Version | Text Only | Print | Product List | Glossary On
Versions: 1 2 3 4 5 6 7 8 9 10 11 12 13 14 15 16 17 18 19 20 21 22 23 24 25 26 27 28 29 30 31 32 33 34 35 36 37 38 39 40 41 42 43 44 45 46 47 48 49 50
000
ASUS43 KMKX 280311
RWRWI

WISCONSIN REGIONAL WEATHER ROUNDUP
NATIONAL WEATHER SERVICE MILWAUKEE/SULLIVAN WI
1000 PM CDT THU AUG 27 2015

NOTE: "FAIR" INDICATES FEW OR NO CLOUDS BELOW 12,000 FEET WITH NO
SIGNIFICANT WEATHER AND/OR OBSTRUCTIONS TO VISIBILITY.

WIZ001-002-006>008-014>016-023>028-280400-
NORTHWEST WISCONSIN

CITY           SKY/WX    TMP DP  RH WIND       PRES   REMARKS
SUPERIOR ARPT  CLOUDY    57  50  78 CALM      30.01S
ASHLAND        CLOUDY    61  60  97 CALM      30.02S
HAYWARD        MOCLDY    65  58  78 S5        30.03F
SIREN          MOCLDY    65  59  82 S5        30.01S
CUMBERLAND     CLOUDY    61  57  88 S7        30.03S
RICE LAKE      CLOUDY    63  57  83 SE7       30.05S
CHETEK         CLOUDY   N/A N/A N/A SE6       30.04F
LADYSMITH      MOCLDY    65  59  80 S3        30.07F
EAU CLAIRE     MOCLDY    66  58  75 S7        30.04F
MENOMONIE      MOCLDY    63  60  90 E6        30.04S
NEW RICHMOND   MOCLDY    63  58  85 SE5       30.02S
OSCEOLA        MOCLDY    65  59  83 CALM      30.04R
$$

WIZ003>005-009-010-017-018-280400-
NORTH CENTRAL WISCONSIN

CITY           SKY/WX    TMP DP  RH WIND       PRES   REMARKS
MANITOWISH WTR MOCLDY    58  57  96 S3        30.06F
ARBOR VITAE    MOCLDY    62  58  86 CALM      30.08S
WOODRUFF       MOCLDY    62  58  86 CALM      30.08S
RHINELANDER    MOCLDY    60  56  86 CALM      30.09F
EAGLE RIVER    MOCLDY    59  53  79 CALM      30.08F
LAND O LAKES   PTCLDY    60  55  83 CALM      30.09S
PHILLIPS       MOCLDY    61  58  87 S3        30.06F
TOMAHAWK       MOCLDY    57  56  94 CALM      30.09S
MEDFORD        MOCLDY    60  58  92 SE5       30.08F
MERRILL        PTCLDY    63  58  83 CALM      30.09S
$$

WIZ029-030-035-036-043>047-280400-
CENTRAL WISCONSIN

CITY           SKY/WX    TMP DP  RH WIND       PRES   REMARKS
WAUSAU         PTCLDY    65  58  78 CALM      30.07S
MOSINEE        CLEAR     61  59  94 S3        30.10S
MARSHFIELD     MOCLDY    62  56  80 S3        30.08F
STEVENS POINT  CLEAR     58  55  90 CALM      30.10S
WAUPACA        PTCLDY    63  59  88 CALM      30.09F
WAUTOMA        CLEAR     62  59  90 CALM      30.10S
WISC RAPIDS    PTCLDY    62  57  83 CALM      30.11R
CAMP DOUGLAS   MOCLDY    63  63 100 S5        30.09S
$$

WIZ011>013-019>022-031-037>040-048>050-280400-
NORTHEAST WISCONSIN

CITY           SKY/WX    TMP DP  RH WIND       PRES   REMARKS
ANTIGO         MOCLDY    59  55  88 S3        30.10S
SHAWANO        MOCLDY    65  58  78 S3        30.09F
OCONTO         PTCLDY    61  61 100 S5        30.09S
STURGEON BAY   CLEAR     57  52  82 S8        30.13S
GREEN BAY      MOCLDY    62  57  83 S7        30.10S
MANITOWOC      PTCLDY    60  54  80 MISG      30.13S
APPLETON       MOCLDY    64  54  68 SE5       30.09S
CLINTONVILLE   MOCLDY    61  55  82 S3        30.09S
OSHKOSH        PTCLDY    59  55  87 S6        30.10S
$$

WIZ032>034-041-042-053>061-280400-
SOUTHWEST WISCONSIN

CITY           SKY/WX    TMP DP  RH WIND       PRES   REMARKS
LA CROSSE      MOCLDY    67  60  78 S6        30.05F
SPARTA         MOCLDY    61  58  90 CALM      30.08F
VIROQUA        MOCLDY    62  59  90 S5        30.10S
BOSCOBEL       PTCLDY    62  59  90 CALM      30.10R
PRAIRIE DU CHI MOCLDY    66  58  76 E5        30.08S
PLATTEVILLE    MOCLDY    63  60  90 E6        30.11R
$$

WIZ056-057-062-063-064-067-068-280400-
SOUTH CENTRAL WISCONSIN

CITY           SKY/WX    TMP DP  RH WIND       PRES   REMARKS
REEDSBURG      MOCLDY    63  59  86 CALM      30.11R
BARABOO/DELLS  PTCLDY    61  55  81 S6        30.11S
LONE ROCK      PTCLDY    62  57  83 CALM      30.11R
MINERAL POINT  CLEAR     63  59  88 CALM      30.12R
MADISON        MOCLDY    66  57  72 S7        30.11S
MIDDLETON      PTCLDY    65  57  73 S5        30.12S
WATERTOWN      MOCLDY    61  60  98 SE5       30.12S
MONROE         CLEAR     61  55  82 SE9       30.12F
JANESVILLE     CLEAR     61  57  88 CALM      30.13R
$$

WIZ051-052-058>065-066-070>072-280400-
SOUTHEAST WISCONSIN

CITY           SKY/WX    TMP DP  RH WIND       PRES   REMARKS
MILWAUKEE      MOCLDY    62  55  77 SW5       30.14S
WAUKESHA       MOCLDY    59  52  77 SE5       30.15S
MILWAUKEE/TIMM MOCLDY    61  52  72 S3        30.14S
RACINE         MOCLDY    61  54  77 SW3       30.16R
BURLINGTON     MOCLDY    54  52  94 CALM      30.14S
KENOSHA        MOCLDY    56  53  90 CALM      30.15R
FOND DU LAC    PTCLDY    60  57  89 S6        30.12S
SHEBOYGAN      PTCLDY    56  53  90 CALM      30.13S
WEST BEND      FAIR      59  52  77 CALM      30.14S
JUNEAU         PTCLDY    63  56  80 S7        30.13S
$$

LSZ147-162-280400-
LAKE SUPERIOR

STATION/POSITION TIME  TEMP    WIND        PRES    WAVE
                       AIR SEA DIR/SP/G            HT/PER
                 (UTC) (F)     (DEG/KT/KT) (MB)    (FT/S)
W MID LAKE BUOY  0250   57 56  130/  4/  4 1016.4R   0
DEVILS ISLAND    0300   63     150/  8/  9 1016.1F
PORT WING        0240   57      50/  3/  5 1016.3S
SAXON HARBOR     0200   62     210/  2/  3 1015.9S
$$

LMZ867-665-643>646-280400-
LAKE MICHIGAN

STATION/POSITION TIME  TEMP    WIND        PRES    WAVE
                       AIR SEA DIR/SP/G            HT/PER
                 (UTC) (F)     (DEG/KT/KT) (MB)    (FT/S)
CHAMBERS ISLAND  0200   63     150/  4/  9 1019.3S
S GREEN BAY BUOY 0300   64     180/ 14/ 16 1020.4S
N MID LAKE BUOY  0250   63 64  210/ 17/ 21 1019.3S   2/ 4
NORTHPORT PIER   0200   62     170/  5/ 14 1019.3S
SISTER BAY       0219   61     160/ 12/ 15   N/A
ALGOMA LAKESHORE 0244          210/ 10/ 11   N/A
KEWAUNEE LAKESHO 0200   51     170/ 10/ 10 1018.9R
SHEBOYGAN LAKESH 0200   60     190/ 14/ 15 1020.6F
PORT WASHINGTON  0200   54     170/  2/  3 1021.0S
ATWATER BUOY     0300   54 47  160/  4/  6 1021.8S
MILWAUKEE LAKESH 0200   61     220/  3/  4   N/A
S MID LAKE BUOY  0250   66 69  140/  6/  8 1020.7F   0
KENOSHA   LAKESH 0300   63     190/  7/  8 1020.7R
$$

TC  - TEMPERATURE IN CELSIUS
VSB - VISIBILITY IN STATUTE MILES
WCI - WIND CHILL INDEX
HX  - HEAT INDEX




USA.gov is the U.S. government's official web portal to all federal, state and local government web resources and services.